Find Starlink 30474

NORAD ID: 57897 Int'l Des: 2023-146 Owner: SPXS Country: US Constellation: starlink operational
LEOCIRCULAR

リアルタイム位置

3D地球を読み込み中...

Starlink 30474について

説明を読み込み中...

次回通過

Passes for default location (London). Set your location on the main map for personalized predictions.

高度履歴

Loading altitude history...

軌道要素

1 57897U 23146G 26126.34382074 .00048942 00000-0 17863-2 0 9994
2 57897 43.0040 348.6147 0002030 262.3100 97.7521 15.27393500145872
Epoch: May 6, 2026 • Age: 10 hours

現在のステータス

高度 487.5 km
速度 7.63 km/s
衛星直下点 40.87°N, 80.75°W
打ち上げ日 Sep 20, 2023
運用期間 2.6 years
タイプ internet

技術仕様

分類 Payload
質量 730.00 kg
乾燥質量 700.00 kg
総質量 730.00 kg
長さ 0.30 m
直径 4.10 m
スパン 29.00 m
形状 Box + pan
製造者 SPXS
バスタイプ Starlink V2M
フェーズステータス In Orbit
所有者/国 SPXS/US

Most Searched